Time,TemperatureF,DewpointF,PressureIn,WindDirection,WindDirectionDegrees,WindSpeedMPH,WindSpeedGustMPH,Humidity,HourlyPrecipIn,Conditions,Clouds,dailyrainin,SoftwareType,DateUTC
2013-01-19 00:02:00,35.4,0.3,31.00,SE,131,8.0,15.0,22,0.00,,,0.00,Weather View 32 v70,2013-01-19 07:02:00,
2013-01-19 00:07:00,35.1,0.0,31.00,SW,219,8.0,15.0,22,0.00,,,0.00,Weather View 32 v70,2013-01-19 07:07:00,
2013-01-19 00:12:00,35.2,0.2,31.00,SE,142,4.0,17.0,22,0.00,,,0.00,Weather View 32 v70,2013-01-19 07:12:00,
2013-01-19 00:17:00,35.2,0.2,31.00,SSE,150,4.0,17.0,22,0.00,,,0.00,Weather View 32 v70,2013-01-19 07:17:00,
2013-01-19 00:22:00,35.4,0.3,31.00,South,183,4.0,17.0,22,0.00,,,0.00,Weather View 32 v70,2013-01-19 07:22:00,
2013-01-19 00:27:00,34.9,-0.1,31.00,ESE,120,5.0,17.0,22,0.00,,,0.00,Weather View 32 v70,2013-01-19 07:27:00,
2013-01-19 00:32:00,35.8,0.6,31.00,SW,230,8.0,20.0,22,0.00,,,0.00,Weather View 32 v70,2013-01-19 07:32:00,
2013-01-19 00:37:00,35.6,0.5,31.00,SSE,162,3.0,20.0,22,0.00,,,0.00,Weather View 32 v70,2013-01-19 07:37:00,
2013-01-19 00:42:00,36.0,0.8,31.00,SSW,207,9.0,20.0,22,0.00,,,0.00,Weather View 32 v70,2013-01-19 07:42:00,
2013-01-19 00:47:00,35.8,0.6,31.00,SW,219,12.0,20.0,22,0.00,,,0.00,Weather View 32 v70,2013-01-19 07:47:00,
2013-01-19 00:52:00,36.1,0.9,31.00,South,170,9.0,22.0,22,0.00,,,0.00,Weather View 32 v70,2013-01-19 07:52:00,
2013-01-19 00:57:00,35.6,0.5,31.00,SSE,167,4.0,22.0,22,0.00,,,0.00,Weather View 32 v70,2013-01-19 07:57:00,
2013-01-19 01:02:00,35.2,0.2,31.00,West,263,4.0,22.0,22,0.00,,,0.00,Weather View 32 v70,2013-01-19 08:02:00,
2013-01-19 01:07:00,34.7,-0.3,31.00,South,190,8.0,22.0,22,0.00,,,0.00,Weather View 32 v70,2013-01-19 08:07:00,
2013-01-19 01:12:00,34.3,-0.6,31.00,East,92,0.0,22.0,22,0.00,,,0.00,Weather View 32 v70,2013-01-19 08:12:00,
2013-01-19 01:17:00,33.4,-0.4,31.00,SSW,212,0.0,22.0,23,0.00,,,0.00,Weather View 32 v70,2013-01-19 08:17:00,
2013-01-19 01:22:00,32.9,-0.9,31.00,East,85,0.0,22.0,23,0.00,,,0.00,Weather View 32 v70,2013-01-19 08:22:00,
2013-01-19 01:27:00,33.1,-0.7,31.00,East,97,0.0,22.0,23,0.00,,,0.00,Weather View 32 v70,2013-01-19 08:27:00,
2013-01-19 01:32:00,32.2,-1.5,31.00,North,4,4.0,22.0,23,0.00,,,0.00,Weather View 32 v70,2013-01-19 08:32:00,
2013-01-19 01:37:00,30.7,-2.7,31.00,WSW,245,0.0,22.0,23,0.00,,,0.00,Weather View 32 v70,2013-01-19 08:37:00,
2013-01-19 01:42:00,28.9,-4.2,31.00,WSW,258,0.0,22.0,23,0.00,,,0.00,Weather View 32 v70,2013-01-19 08:42:00,
2013-01-19 01:47:00,27.9,-2.6,31.00,SW,215,6.0,22.0,26,0.00,,,0.00,Weather View 32 v70,2013-01-19 08:47:00,
2013-01-19 01:52:00,26.8,0.2,31.00,SW,230,4.0,18.0,31,0.00,,,0.00,Weather View 32 v70,2013-01-19 08:52:00,
2013-01-19 01:57:00,26.2,1.0,31.00,SW,235,3.0,18.0,33,0.00,,,0.00,Weather View 32 v70,2013-01-19 08:57:00,
2013-01-19 02:02:00,27.0,0.3,31.00,South,185,6.0,11.0,31,0.00,,,0.00,Weather View 32 v70,2013-01-19 09:02:00,
2013-01-19 02:07:00,27.5,2.1,31.00,West,268,0.0,11.0,33,0.00,,,0.00,Weather View 32 v70,2013-01-19 09:07:00,
2013-01-19 02:12:00,27.3,1.3,31.00,WSW,253,0.0,8.0,32,0.00,,,0.00,Weather View 32 v70,2013-01-19 09:12:00,
2013-01-19 02:17:00,27.7,1.0,31.00,WSW,253,4.0,8.0,31,0.00,,,0.00,Weather View 32 v70,2013-01-19 09:17:00,
2013-01-19 02:22:00,29.3,1.7,31.00,SW,224,7.0,8.0,30,0.00,,,0.00,Weather View 32 v70,2013-01-19 09:22:00,
2013-01-19 02:27:00,31.8,2.4,31.00,WSW,249,8.0,11.0,28,0.00,,,0.00,Weather View 32 v70,2013-01-19 09:27:00,
2013-01-19 02:32:00,33.4,1.4,31.00,SW,223,15.0,15.0,25,0.00,,,0.00,Weather View 32 v70,2013-01-19 09:32:00,
2013-01-19 02:37:00,33.3,1.2,31.00,SSE,153,0.0,15.0,25,0.00,,,0.00,Weather View 32 v70,2013-01-19 09:37:00,
2013-01-19 02:42:00,32.0,4.0,31.00,NNW,342,0.0,15.0,30,0.00,,,0.00,Weather View 32 v70,2013-01-19 09:42:00,
2013-01-19 02:47:00,30.7,1.5,31.00,WSW,257,6.0,15.0,28,0.00,,,0.00,Weather View 32 v70,2013-01-19 09:47:00,
2013-01-19 02:52:00,32.2,2.7,31.00,West,274,6.0,15.0,28,0.00,,,0.00,Weather View 32 v70,2013-01-19 09:52:00,
2013-01-19 02:57:00,32.5,0.6,31.00,North,357,0.0,15.0,25,0.00,,,0.00,Weather View 32 v70,2013-01-19 09:57:00,
2013-01-19 03:02:00,31.3,1.9,31.00,SE,133,0.0,15.0,28,0.00,,,0.00,Weather View 32 v70,2013-01-19 10:02:00,
2013-01-19 03:07:00,30.7,1.5,31.00,West,263,0.0,15.0,28,0.00,,,0.00,Weather View 32 v70,2013-01-19 10:07:00,
2013-01-19 03:12:00,30.2,-1.4,31.00,South,186,0.0,15.0,25,0.00,,,0.00,Weather View 32 v70,2013-01-19 10:12:00,
2013-01-19 03:17:00,30.2,-1.4,31.00,WNW,282,4.0,15.0,25,0.00,,,0.00,Weather View 32 v70,2013-01-19 10:17:00,
2013-01-19 03:22:00,29.8,2.9,31.00,SSE,147,2.0,15.0,31,0.00,,,0.00,Weather View 32 v70,2013-01-19 10:22:00,
2013-01-19 03:27:00,29.3,0.2,31.00,East,96,0.0,15.0,28,0.00,,,0.00,Weather View 32 v70,2013-01-19 10:27:00,
2013-01-19 03:32:00,30.4,2.6,31.00,West,262,0.0,15.0,30,0.00,,,0.00,Weather View 32 v70,2013-01-19 10:32:00,
2013-01-19 03:37:00,30.4,2.6,31.00,SE,127,0.0,11.0,30,0.00,,,0.00,Weather View 32 v70,2013-01-19 10:37:00,
2013-01-19 03:43:00,29.5,0.4,31.00,NE,35,0.0,11.0,28,0.00,,,0.00,Weather View 32 v70,2013-01-19 10:43:00,
2013-01-19 03:48:00,29.7,0.5,31.00,South,175,0.0,11.0,28,0.00,,,0.00,Weather View 32 v70,2013-01-19 10:48:00,
2013-01-19 03:53:00,28.6,1.8,31.00,NNW,337,0.0,11.0,31,0.00,,,0.00,Weather View 32 v70,2013-01-19 10:53:00,
2013-01-19 03:58:00,27.7,2.3,31.00,NW,312,0.0,11.0,33,0.00,,,0.00,Weather View 32 v70,2013-01-19 10:58:00,
2013-01-19 04:03:00,26.6,0.7,31.00,NNW,332,0.0,11.0,32,0.00,,,0.00,Weather View 32 v70,2013-01-19 11:03:00,
2013-01-19 04:07:00,26.1,0.2,31.00,West,272,0.0,11.0,32,0.00,,,0.00,Weather View 32 v70,2013-01-19 11:07:00,
2013-01-19 04:12:00,25.3,-0.4,31.00,SW,232,0.0,11.0,32,0.00,,,0.00,Weather View 32 v70,2013-01-19 11:12:00,
2013-01-19 05:47:00,31.1,-0.6,31.00,North,0,0.0,10.0,25,0.00,,,0.00,Weather View 32 v70,2013-01-19 12:47:00,
2013-01-19 05:48:00,31.3,-0.5,31.00,North,0,0.0,10.0,25,0.00,,,0.00,Weather View 32 v70,2013-01-19 12:48:00,
2013-01-19 05:53:00,31.5,-0.3,31.00,North,0,0.0,10.0,25,0.00,,,0.00,Weather View 32 v70,2013-01-19 12:53:00,
2013-01-19 05:58:00,31.6,-0.2,31.00,North,0,0.0,10.0,25,0.00,,,0.00,Weather View 32 v70,2013-01-19 12:58:00,
2013-01-19 06:03:00,31.8,0.0,31.00,North,0,0.0,10.0,25,0.00,,,0.00,Weather View 32 v70,2013-01-19 13:03:00,
2013-01-19 06:08:00,32.2,0.3,31.00,North,0,0.0,10.0,25,0.00,,,0.00,Weather View 32 v70,2013-01-19 13:08:00,
2013-01-19 06:13:00,31.1,-0.6,31.00,SSE,157,0.0,0.0,25,0.00,,,0.00,Weather View 32 v70,2013-01-19 13:13:00,
2013-01-19 06:18:00,30.4,1.1,31.00,ESE,102,2.0,2.0,28,0.00,,,0.00,Weather View 32 v70,2013-01-19 13:18:00,
2013-01-19 06:23:00,30.7,-1.0,31.00,East,94,5.0,5.0,25,0.00,,,0.00,Weather View 32 v70,2013-01-19 13:23:00,
2013-01-19 06:28:00,30.6,-1.1,31.00,SSW,198,4.0,5.0,25,0.00,,,0.00,Weather View 32 v70,2013-01-19 13:28:00,
2013-01-19 06:33:00,31.1,-0.6,31.00,North,0,0.0,5.0,25,0.00,,,0.00,Weather View 32 v70,2013-01-19 13:33:00,
2013-01-19 06:38:00,32.4,0.4,31.00,North,0,0.0,5.0,25,0.00,,,0.00,Weather View 32 v70,2013-01-19 13:38:00,
2013-01-19 06:43:00,32.0,0.1,31.00,North,0,0.0,5.0,25,0.00,,,0.00,Weather View 32 v70,2013-01-19 13:43:00,
2013-01-19 06:48:00,31.5,-0.3,31.00,North,0,0.0,5.0,25,0.00,,,0.00,Weather View 32 v70,2013-01-19 13:48:00,
2013-01-19 06:53:00,31.3,-0.5,31.00,North,0,0.0,5.0,25,0.00,,,0.00,Weather View 32 v70,2013-01-19 13:53:00,
2013-01-19 06:58:00,30.6,-1.1,31.00,North,0,0.0,5.0,25,0.00,,,0.00,Weather View 32 v70,2013-01-19 13:58:00,
2013-01-19 07:03:00,30.0,0.8,31.00,North,0,0.0,5.0,28,0.00,,,0.00,Weather View 32 v70,2013-01-19 14:03:00,
2013-01-19 07:08:00,28.6,-0.4,31.00,North,0,0.0,5.0,28,0.00,,,0.00,Weather View 32 v70,2013-01-19 14:08:00,
2013-01-19 07:13:00,27.1,-1.7,31.00,North,0,0.0,5.0,28,0.00,,,0.00,Weather View 32 v70,2013-01-19 14:13:00,
2013-01-19 07:18:00,27.0,0.3,31.00,North,0,0.0,5.0,31,0.00,,,0.00,Weather View 32 v70,2013-01-19 14:18:00,
2013-01-19 07:23:00,27.3,-1.5,31.00,North,0,0.0,5.0,28,0.00,,,0.00,Weather View 32 v70,2013-01-19 14:23:00,
2013-01-19 07:28:00,27.9,1.1,31.00,North,0,0.0,4.0,31,0.00,,,0.00,Weather View 32 v70,2013-01-19 14:28:00,
2013-01-19 07:33:00,28.4,-0.6,31.00,North,0,0.0,0.0,28,0.00,,,0.00,Weather View 32 v70,2013-01-19 14:33:00,
2013-01-19 07:38:00,28.2,-0.7,31.00,North,0,0.0,0.0,28,0.00,,,0.00,Weather View 32 v70,2013-01-19 14:38:00,
2013-01-19 07:43:00,28.6,-0.4,31.00,North,0,0.0,0.0,28,0.00,,,0.00,Weather View 32 v70,2013-01-19 14:43:00,
2013-01-19 07:48:00,28.0,1.3,31.00,North,0,0.0,0.0,31,0.00,,,0.00,Weather View 32 v70,2013-01-19 14:48:00,
2013-01-19 07:53:00,27.3,0.6,31.00,North,0,0.0,0.0,31,0.00,,,0.00,Weather View 32 v70,2013-01-19 14:53:00,
2013-01-19 07:58:00,26.2,0.4,31.00,North,0,0.0,0.0,32,0.00,,,0.00,Weather View 32 v70,2013-01-19 14:58:00,
2013-01-19 08:03:00,25.9,-0.6,31.00,North,0,0.0,0.0,31,0.00,,,0.00,Weather View 32 v70,2013-01-19 15:03:00,
2013-01-19 08:08:00,25.3,-1.1,31.00,North,0,0.0,0.0,31,0.00,,,0.00,Weather View 32 v70,2013-01-19 15:08:00,
2013-01-19 08:13:00,25.7,-0.8,31.00,North,0,0.0,0.0,31,0.00,,,0.00,Weather View 32 v70,2013-01-19 15:13:00,
2013-01-19 08:18:00,26.1,0.2,31.00,North,0,0.0,0.0,32,0.00,,,0.00,Weather View 32 v70,2013-01-19 15:18:00,
2013-01-19 08:23:00,26.1,-1.9,31.00,North,0,0.0,0.0,29,0.00,,,0.00,Weather View 32 v70,2013-01-19 15:23:00,
2013-01-19 08:28:00,28.4,-0.6,31.00,North,0,0.0,0.0,28,0.00,,,0.00,Weather View 32 v70,2013-01-19 15:28:00,
2013-01-19 08:33:00,29.8,0.7,31.00,North,0,0.0,0.0,28,0.00,,,0.00,Weather View 32 v70,2013-01-19 15:33:00,
2013-01-19 08:38:00,31.1,-0.6,31.00,North,0,0.0,0.0,25,0.00,,,0.00,Weather View 32 v70,2013-01-19 15:38:00,
2013-01-19 08:43:00,31.6,-0.2,31.00,North,0,0.0,0.0,25,0.00,,,0.00,Weather View 32 v70,2013-01-19 15:43:00,
2013-01-19 08:48:00,32.2,0.3,31.00,North,0,0.0,0.0,25,0.00,,,0.00,Weather View 32 v70,2013-01-19 15:48:00,
2013-01-19 08:53:00,31.8,0.0,31.00,North,0,0.0,0.0,25,0.00,,,0.00,Weather View 32 v70,2013-01-19 15:53:00,
2013-01-19 08:58:00,31.5,-0.3,31.00,North,0,0.0,0.0,25,0.00,,,0.00,Weather View 32 v70,2013-01-19 15:58:00,
2013-01-19 09:03:00,30.6,-1.1,31.00,North,0,0.0,0.0,25,0.00,,,0.00,Weather View 32 v70,2013-01-19 16:03:00,
2013-01-19 09:08:00,29.7,0.5,31.00,North,0,0.0,0.0,28,0.00,,,0.00,Weather View 32 v70,2013-01-19 16:08:00,
2013-01-19 09:13:00,29.1,0.1,31.00,North,0,0.0,0.0,28,0.00,,,0.00,Weather View 32 v70,2013-01-19 16:13:00,
2013-01-19 09:18:00,29.3,0.2,31.00,North,0,0.0,0.0,28,0.00,,,0.00,Weather View 32 v70,2013-01-19 16:18:00,
2013-01-19 09:23:00,29.3,1.7,31.00,North,0,0.0,0.0,30,0.00,,,0.00,Weather View 32 v70,2013-01-19 16:23:00,
2013-01-19 09:28:00,29.5,1.8,31.00,North,0,0.0,0.0,30,0.00,,,0.00,Weather View 32 v70,2013-01-19 16:28:00,
2013-01-19 09:33:00,30.0,2.3,31.00,North,0,0.0,0.0,30,0.00,,,0.00,Weather View 32 v70,2013-01-19 16:33:00,
2013-01-19 09:38:00,31.1,3.3,31.00,North,0,0.0,0.0,30,0.00,,,0.00,Weather View 32 v70,2013-01-19 16:38:00,
2013-01-19 09:43:00,33.4,5.3,31.00,North,0,0.0,0.0,30,0.00,,,0.00,Weather View 32 v70,2013-01-19 16:43:00,
2013-01-19 09:48:00,35.2,2.9,31.00,North,0,0.0,0.0,25,0.00,,,0.00,Weather View 32 v70,2013-01-19 16:48:00,
2013-01-19 09:53:00,36.9,6.0,31.00,North,0,0.0,0.0,27,0.00,,,0.00,Weather View 32 v70,2013-01-19 16:53:00,
2013-01-19 09:58:00,37.6,4.0,31.00,North,0,0.0,0.0,24,0.00,,,0.00,Weather View 32 v70,2013-01-19 16:58:00,
2013-01-19 10:03:00,39.2,4.5,31.00,North,0,0.0,0.0,23,0.00,,,0.00,Weather View 32 v70,2013-01-19 17:03:00,
2013-01-19 10:08:00,39.2,4.5,31.00,North,0,0.0,0.0,23,0.00,,,0.00,Weather View 32 v70,2013-01-19 17:08:00,
2013-01-19 10:18:00,38.7,4.9,31.00,North,0,0.0,0.0,24,0.00,,,0.00,Weather View 32 v70,2013-01-19 17:18:00,
2013-01-19 10:24:00,38.1,4.5,31.00,ESE,105,0.0,0.0,24,0.00,,,0.00,Weather View 32 v70,2013-01-19 17:24:00,
2013-01-19 10:29:00,37.9,4.3,31.00,North,0,0.0,0.0,24,0.00,,,0.00,Weather View 32 v70,2013-01-19 17:29:00,
2013-01-19 10:34:00,39.2,4.5,31.00,South,177,0.0,0.0,23,0.00,,,0.00,Weather View 32 v70,2013-01-19 17:34:00,
2013-01-19 10:39:00,41.0,4.0,31.00,North,0,0.0,0.0,21,0.00,,,0.00,Weather View 32 v70,2013-01-19 17:39:00,
2013-01-19 10:44:00,43.3,4.9,31.00,East,94,0.0,0.0,20,0.00,,,0.00,Weather View 32 v70,2013-01-19 17:44:00,
2013-01-19 10:50:00,45.3,6.5,31.00,ENE,63,0.0,3.0,20,0.00,,,0.00,Weather View 32 v70,2013-01-19 17:50:00,
2013-01-19 10:55:00,48.6,8.1,31.00,North,0,0.0,3.0,19,0.00,,,0.00,Weather View 32 v70,2013-01-19 17:55:00,
2013-01-19 11:00:00,49.8,9.1,31.00,SSE,161,3.0,3.0,19,0.00,,,0.00,Weather View 32 v70,2013-01-19 18:00:00,
2013-01-19 11:06:00,49.1,8.6,31.00,ESE,117,3.0,3.0,19,0.00,,,0.00,Weather View 32 v70,2013-01-19 18:06:00,
2013-01-19 11:11:00,48.4,8.0,31.00,SSE,158,3.0,7.0,19,0.00,,,0.00,Weather View 32 v70,2013-01-19 18:11:00,
2013-01-19 11:16:00,49.6,9.0,31.00,NW,319,3.0,7.0,19,0.00,,,0.00,Weather View 32 v70,2013-01-19 18:16:00,
2013-01-19 11:22:00,48.4,8.0,31.00,North,0,0.0,7.0,19,0.00,,,0.00,Weather View 32 v70,2013-01-19 18:22:00,
2013-01-19 11:27:00,52.2,9.9,31.00,SSE,148,8.0,8.0,18,0.00,,,0.00,Weather View 32 v70,2013-01-19 18:27:00,
2013-01-19 11:33:00,51.3,10.3,31.00,ENE,78,10.0,10.0,19,0.00,,,0.00,Weather View 32 v70,2013-01-19 18:33:00,
2013-01-19 11:38:00,48.0,7.7,31.00,WSW,241,3.0,10.0,19,0.00,,,0.00,Weather View 32 v70,2013-01-19 18:38:00,
2013-01-19 11:43:00,50.2,9.4,31.00,SE,127,6.0,10.0,19,0.00,,,0.00,Weather View 32 v70,2013-01-19 18:43:00,
2013-01-19 11:48:00,50.7,9.9,31.00,South,178,3.0,10.0,19,0.00,,,0.00,Weather View 32 v70,2013-01-19 18:48:00,
2013-01-19 11:53:00,49.1,8.6,31.00,East,99,5.0,10.0,19,0.00,,,0.00,Weather View 32 v70,2013-01-19 18:53:00,
2013-01-19 11:58:00,49.5,8.8,31.00,ENE,75,6.0,10.0,19,0.00,,,0.00,Weather View 32 v70,2013-01-19 18:58:00,
2013-01-19 12:03:00,47.7,7.4,31.00,ESE,102,3.0,10.0,19,0.00,,,0.00,Weather View 32 v70,2013-01-19 19:03:00,
2013-01-19 12:08:00,46.9,6.8,31.00,ESE,123,6.0,10.0,19,0.00,,,0.00,Weather View 32 v70,2013-01-19 19:08:00,
2013-01-19 12:13:00,47.8,7.5,31.00,SSW,208,4.0,10.0,19,0.00,,,0.00,Weather View 32 v70,2013-01-19 19:13:00,
2013-01-19 12:18:00,47.8,7.5,31.00,NNW,346,6.0,10.0,19,0.00,,,0.00,Weather View 32 v70,2013-01-19 19:18:00,
2013-01-19 12:23:00,48.9,8.4,31.00,North,0,0.0,10.0,19,0.00,,,0.00,Weather View 32 v70,2013-01-19 19:23:00,
2013-01-19 12:28:00,49.6,9.0,31.00,SW,226,0.0,10.0,19,0.00,,,0.00,Weather View 32 v70,2013-01-19 19:28:00,
2013-01-19 12:33:00,49.3,8.7,31.00,SSW,194,4.0,10.0,19,0.00,,,0.00,Weather View 32 v70,2013-01-19 19:33:00,
2013-01-19 12:38:00,48.6,8.1,31.00,SE,138,4.0,9.0,19,0.00,,,0.00,Weather View 32 v70,2013-01-19 19:38:00,
2013-01-19 12:43:00,48.7,8.3,31.00,South,186,0.0,8.0,19,0.00,,,0.00,Weather View 32 v70,2013-01-19 19:43:00,
2013-01-19 12:49:00,49.3,8.7,31.00,SE,141,3.0,8.0,19,0.00,,,0.00,Weather View 32 v70,2013-01-19 19:49:00,
2013-01-19 12:54:00,49.3,8.7,31.00,SW,229,0.0,8.0,19,0.00,,,0.00,Weather View 32 v70,2013-01-19 19:54:00,
2013-01-19 12:59:00,49.3,8.7,31.00,SE,129,0.0,8.0,19,0.00,,,0.00,Weather View 32 v70,2013-01-19 19:59:00,
2013-01-19 13:05:00,48.9,8.4,31.00,SSE,167,0.0,9.0,19,0.00,,,0.00,Weather View 32 v70,2013-01-19 20:05:00,
2013-01-19 13:10:00,49.6,9.0,31.00,North,0,0.0,9.0,19,0.00,,,0.00,Weather View 32 v70,2013-01-19 20:10:00,
2013-01-19 13:15:00,49.8,9.1,31.00,ESE,122,7.0,9.0,19,0.00,,,0.00,Weather View 32 v70,2013-01-19 20:15:00,
2013-01-19 13:20:00,48.4,8.0,31.00,SSE,150,0.0,17.0,19,0.00,,,0.00,Weather View 32 v70,2013-01-19 20:20:00,
2013-01-19 13:25:00,48.7,8.3,31.00,NE,38,0.0,17.0,19,0.00,,,0.00,Weather View 32 v70,2013-01-19 20:25:00,
2013-01-19 13:30:00,48.7,8.3,31.00,SSW,196,0.0,17.0,19,0.00,,,0.00,Weather View 32 v70,2013-01-19 20:30:00,
2013-01-19 13:35:00,48.4,8.0,31.00,South,191,4.0,17.0,19,0.00,,,0.00,Weather View 32 v70,2013-01-19 20:35:00,
2013-01-19 13:41:00,47.8,7.5,31.00,North,0,0.0,17.0,19,0.00,,,0.00,Weather View 32 v70,2013-01-19 20:41:00,
2013-01-19 13:46:00,47.5,7.2,31.00,North,0,0.0,17.0,19,0.00,,,0.00,Weather View 32 v70,2013-01-19 20:46:00,
2013-01-19 13:57:00,48.0,7.7,31.00,North,0,0.0,17.0,19,0.00,,,0.00,Weather View 32 v70,2013-01-19 20:57:00,
2013-01-19 14:02:00,48.4,8.0,31.00,SSE,164,0.0,17.0,19,0.00,,,0.00,Weather View 32 v70,2013-01-19 21:02:00,
2013-01-19 14:07:00,47.5,7.2,31.00,North,0,0.0,17.0,19,0.00,,,0.00,Weather View 32 v70,2013-01-19 21:07:00,
2013-01-19 14:12:00,46.8,6.6,31.00,NW,313,5.0,17.0,19,0.00,,,0.00,Weather View 32 v70,2013-01-19 21:12:00,
2013-01-19 14:18:00,47.5,7.2,31.00,SE,128,0.0,7.0,19,0.00,,,0.00,Weather View 32 v70,2013-01-19 21:18:00,
2013-01-19 14:23:00,47.7,7.4,31.00,West,260,6.0,8.0,19,0.00,,,0.00,Weather View 32 v70,2013-01-19 21:23:00,
2013-01-19 14:39:00,47.8,7.5,31.00,NE,40,0.0,8.0,19,0.00,,,0.00,Weather View 32 v70,2013-01-19 21:39:00,
2013-01-19 14:45:00,49.1,8.6,31.00,SSE,159,0.0,8.0,19,0.00,,,0.00,Weather View 32 v70,2013-01-19 21:45:00,
2013-01-19 14:50:00,49.6,9.0,31.00,SSW,212,3.0,8.0,19,0.00,,,0.00,Weather View 32 v70,2013-01-19 21:50:00,
2013-01-19 14:55:00,48.6,8.1,31.00,SW,222,5.0,10.0,19,0.00,,,0.00,Weather View 32 v70,2013-01-19 21:55:00,
2013-01-19 15:00:00,48.7,8.3,31.00,WSW,254,3.0,10.0,19,0.00,,,0.00,Weather View 32 v70,2013-01-19 22:00:00,
2013-01-19 15:05:00,45.5,6.7,31.00,SSE,158,5.0,10.0,20,0.00,,,0.00,Weather View 32 v70,2013-01-19 22:05:00,
2013-01-19 15:10:00,43.9,5.3,31.00,SE,142,4.0,10.0,20,0.00,,,0.00,Weather View 32 v70,2013-01-19 22:10:00,
2013-01-19 15:23:00,43.0,4.6,31.00,East,87,0.0,10.0,20,0.00,,,0.00,Weather View 32 v70,2013-01-19 22:23:00,
2013-01-19 15:28:00,42.4,5.2,31.00,ESE,116,0.0,10.0,21,0.00,,,0.00,Weather View 32 v70,2013-01-19 22:28:00,
2013-01-19 15:42:00,41.0,4.0,31.00,ESE,110,0.0,10.0,21,0.00,,,0.00,Weather View 32 v70,2013-01-19 22:42:00,
2013-01-19 15:47:00,40.3,3.4,31.00,ENE,76,0.0,10.0,21,0.00,,,0.00,Weather View 32 v70,2013-01-19 22:47:00,
2013-01-19 15:53:00,39.7,3.0,31.00,East,84,0.0,10.0,21,0.00,,,0.00,Weather View 32 v70,2013-01-19 22:53:00,
2013-01-19 15:58:00,39.6,2.8,31.00,ESE,102,5.0,8.0,21,0.00,,,0.00,Weather View 32 v70,2013-01-19 22:58:00,
2013-01-19 16:03:00,38.7,2.0,31.00,SE,133,0.0,8.0,21,0.00,,,0.00,Weather View 32 v70,2013-01-19 23:03:00,
2013-01-19 16:08:00,38.5,1.9,31.00,SE,138,4.0,8.0,21,0.00,,,0.00,Weather View 32 v70,2013-01-19 23:08:00,
2013-01-19 16:13:00,37.9,1.4,31.00,ESE,111,4.0,8.0,21,0.00,,,0.00,Weather View 32 v70,2013-01-19 23:13:00,
2013-01-19 16:18:00,37.9,1.4,31.00,ESE,122,4.0,8.0,21,0.00,,,0.00,Weather View 32 v70,2013-01-19 23:18:00,
2013-01-19 16:23:00,38.3,1.7,31.00,South,172,4.0,10.0,21,0.00,,,0.00,Weather View 32 v70,2013-01-19 23:23:00,
2013-01-19 16:29:00,38.1,1.6,31.00,ESE,118,0.0,11.0,21,0.00,,,0.00,Weather View 32 v70,2013-01-19 23:29:00,
2013-01-19 16:34:00,37.9,1.4,31.00,East,80,2.0,11.0,21,0.00,,,0.00,Weather View 32 v70,2013-01-19 23:34:00,
2013-01-19 16:39:00,38.8,2.2,31.00,SSE,162,8.0,13.0,21,0.00,,,0.00,Weather View 32 v70,2013-01-19 23:39:00,
2013-01-19 16:49:00,38.5,1.9,31.00,SSE,149,5.0,13.0,21,0.00,,,0.00,Weather View 32 v70,2013-01-19 23:49:00,
2013-01-19 16:54:00,38.7,2.0,31.00,North,0,0.0,13.0,21,0.00,,,0.00,Weather View 32 v70,2013-01-19 23:54:00,
2013-01-19 16:59:00,38.7,2.0,31.00,North,0,0.0,13.0,21,0.00,,,0.00,Weather View 32 v70,2013-01-19 23:59:00,
2013-01-19 17:04:00,38.7,2.0,31.00,North,0,0.0,13.0,21,0.00,,,0.00,Weather View 32 v70,2013-01-20 00:04:00,
2013-01-19 17:09:00,38.8,2.2,31.00,SSE,155,4.0,15.0,21,0.00,,,0.00,Weather View 32 v70,2013-01-20 00:09:00,
2013-01-19 17:14:00,39.0,2.3,31.00,South,182,3.0,15.0,21,0.00,,,0.00,Weather View 32 v70,2013-01-20 00:14:00,
2013-01-19 17:19:00,38.5,1.9,31.00,ESE,120,0.0,15.0,21,0.00,,,0.00,Weather View 32 v70,2013-01-20 00:19:00,
2013-01-19 17:25:00,37.8,1.3,31.00,SE,131,0.0,15.0,21,0.00,,,0.00,Weather View 32 v70,2013-01-20 00:25:00,
2013-01-19 17:30:00,36.7,1.4,31.00,SW,219,3.0,15.0,22,0.00,,,0.00,Weather View 32 v70,2013-01-20 00:30:00,
2013-01-19 17:35:00,38.1,1.6,31.00,SW,217,7.0,15.0,21,0.00,,,0.00,Weather View 32 v70,2013-01-20 00:35:00,
2013-01-19 17:40:00,38.7,2.0,31.00,SE,144,0.0,15.0,21,0.00,,,0.00,Weather View 32 v70,2013-01-20 00:40:00,
2013-01-19 17:45:00,38.8,2.2,31.00,SSW,194,5.0,15.0,21,0.00,,,0.00,Weather View 32 v70,2013-01-20 00:45:00,
2013-01-19 17:50:00,39.0,2.3,31.00,SSE,152,4.0,15.0,21,0.00,,,0.00,Weather View 32 v70,2013-01-20 00:50:00,
2013-01-19 17:55:00,39.7,3.0,31.00,SW,224,0.0,15.0,21,0.00,,,0.00,Weather View 32 v70,2013-01-20 00:55:00,
2013-01-19 18:00:00,39.7,3.0,31.00,SSW,196,0.0,15.0,21,0.00,,,0.00,Weather View 32 v70,2013-01-20 01:00:00,
2013-01-19 18:05:00,39.2,2.5,31.00,SW,217,2.0,15.0,21,0.00,,,0.00,Weather View 32 v70,2013-01-20 01:05:00,
2013-01-19 18:10:00,38.3,1.7,31.00,North,353,0.0,13.0,21,0.00,,,0.00,Weather View 32 v70,2013-01-20 01:10:00,
2013-01-19 18:15:00,37.9,1.4,31.00,SSE,163,5.0,13.0,21,0.00,,,0.00,Weather View 32 v70,2013-01-20 01:15:00,
2013-01-19 18:21:00,38.1,1.6,31.00,South,181,3.0,13.0,21,0.00,,,0.00,Weather View 32 v70,2013-01-20 01:21:00,
2013-01-19 18:26:00,37.8,1.3,31.00,SSW,196,8.0,13.0,21,0.00,,,0.00,Weather View 32 v70,2013-01-20 01:26:00,
2013-01-19 18:31:00,37.9,1.4,31.00,SSE,163,4.0,13.0,21,0.00,,,0.00,Weather View 32 v70,2013-01-20 01:31:00,
2013-01-19 18:37:00,37.6,1.1,31.00,SSE,162,0.0,13.0,21,0.00,,,0.00,Weather View 32 v70,2013-01-20 01:37:00,
2013-01-19 18:42:00,37.2,1.8,31.00,SSE,168,9.0,13.0,22,0.00,,,0.00,Weather View 32 v70,2013-01-20 01:42:00,
2013-01-19 18:47:00,37.0,1.7,31.00,SE,126,0.0,13.0,22,0.00,,,0.00,Weather View 32 v70,2013-01-20 01:47:00,
2013-01-19 18:52:00,36.1,0.9,31.00,WSW,247,0.0,13.0,22,0.00,,,0.00,Weather View 32 v70,2013-01-20 01:52:00,
2013-01-19 18:58:00,35.2,0.2,31.00,West,281,0.0,12.0,22,0.00,,,0.00,Weather View 32 v70,2013-01-20 01:58:00,
2013-01-19 19:03:00,34.0,-0.9,31.00,West,280,0.0,12.0,22,0.00,,,0.00,Weather View 32 v70,2013-01-20 02:03:00,
2013-01-19 19:08:00,33.4,-0.4,31.00,SW,233,0.0,12.0,23,0.00,,,0.00,Weather View 32 v70,2013-01-20 02:08:00,
2013-01-19 19:13:00,32.7,0.7,31.00,West,261,0.0,12.0,25,0.00,,,0.00,Weather View 32 v70,2013-01-20 02:13:00,
2013-01-19 19:18:00,31.8,0.0,31.00,WSW,257,0.0,12.0,25,0.00,,,0.00,Weather View 32 v70,2013-01-20 02:18:00,
2013-01-19 19:32:00,29.5,1.8,31.00,West,264,0.0,12.0,30,0.00,,,0.00,Weather View 32 v70,2013-01-20 02:32:00,
2013-01-19 19:37:00,28.6,2.4,31.00,West,262,0.0,11.0,32,0.00,,,0.00,Weather View 32 v70,2013-01-20 02:37:00,
2013-01-19 19:42:00,28.2,2.1,31.00,WNW,283,0.0,9.0,32,0.00,,,0.00,Weather View 32 v70,2013-01-20 02:42:00,
2013-01-19 19:47:00,27.9,3.1,31.00,West,260,0.0,4.0,34,0.00,,,0.00,Weather View 32 v70,2013-01-20 02:47:00,
2013-01-19 19:52:00,27.3,2.0,31.00,SW,235,0.0,4.0,33,0.00,,,0.00,Weather View 32 v70,2013-01-20 02:52:00,
2013-01-19 19:58:00,27.0,2.9,31.00,NE,48,0.0,4.0,35,0.00,,,0.00,Weather View 32 v70,2013-01-20 02:58:00,
2013-01-19 20:03:00,28.6,1.1,31.00,NW,307,4.0,4.0,30,0.00,,,0.00,Weather View 32 v70,2013-01-20 03:03:00,
2013-01-19 20:10:00,29.7,0.5,31.00,WSW,239,4.0,6.0,28,0.00,,,0.00,Weather View 32 v70,2013-01-20 03:10:00,
2013-01-19 20:15:00,32.5,0.6,31.00,West,277,3.0,8.0,25,0.00,,,0.00,Weather View 32 v70,2013-01-20 03:15:00,
2013-01-19 20:20:00,33.3,1.2,31.00,SSE,161,3.0,8.0,25,0.00,,,0.00,Weather View 32 v70,2013-01-20 03:20:00,
2013-01-19 20:25:00,34.0,1.8,31.00,WSW,250,5.0,15.0,25,0.00,,,0.00,Weather View 32 v70,2013-01-20 03:25:00,
2013-01-19 20:30:00,33.8,1.7,31.00,South,189,5.0,15.0,25,0.00,,,0.00,Weather View 32 v70,2013-01-20 03:30:00,
2013-01-19 20:36:00,33.4,3.8,31.00,SSW,207,4.0,15.0,28,0.00,,,0.00,Weather View 32 v70,2013-01-20 03:36:00,
2013-01-19 20:42:00,33.1,1.1,31.00,WSW,245,4.0,15.0,25,0.00,,,0.00,Weather View 32 v70,2013-01-20 03:42:00,
2013-01-19 20:47:00,32.5,0.6,31.00,SSW,211,0.0,15.0,25,0.00,,,0.00,Weather View 32 v70,2013-01-20 03:47:00,
2013-01-19 20:52:00,32.5,0.6,31.00,SW,215,0.0,15.0,25,0.00,,,0.00,Weather View 32 v70,2013-01-20 03:52:00,
2013-01-19 20:57:00,31.8,0.0,31.00,SW,216,0.0,15.0,25,0.00,,,0.00,Weather View 32 v70,2013-01-20 03:57:00,
2013-01-19 21:02:00,32.5,0.6,31.00,SSW,205,6.0,15.0,25,0.00,,,0.00,Weather View 32 v70,2013-01-20 04:02:00,
2013-01-19 21:07:00,33.3,-0.6,31.00,West,268,7.0,15.0,23,0.00,,,0.00,Weather View 32 v70,2013-01-20 04:07:00,
2013-01-19 21:12:00,33.3,-0.6,31.00,WSW,249,11.0,15.0,23,0.00,,,0.00,Weather View 32 v70,2013-01-20 04:12:00,
2013-01-19 21:17:00,33.8,-1.1,31.00,SW,217,7.0,15.0,22,0.00,,,0.00,Weather View 32 v70,2013-01-20 04:17:00,
2013-01-19 21:23:00,34.3,-0.6,31.00,SSW,194,6.0,12.0,22,0.00,,,0.00,Weather View 32 v70,2013-01-20 04:23:00,
2013-01-19 21:28:00,34.0,-0.9,31.00,WNW,297,6.0,12.0,22,0.00,,,0.00,Weather View 32 v70,2013-01-20 04:28:00,
2013-01-19 21:33:00,33.6,-0.3,31.00,WSW,250,5.0,12.0,23,0.00,,,0.00,Weather View 32 v70,2013-01-20 04:33:00,
2013-01-19 21:38:00,32.9,0.9,31.00,SW,227,4.0,11.0,25,0.00,,,0.00,Weather View 32 v70,2013-01-20 04:38:00,
2013-01-19 21:43:00,32.2,0.3,31.00,SW,235,0.0,11.0,25,0.00,,,0.00,Weather View 32 v70,2013-01-20 04:43:00,
2013-01-19 21:48:00,31.1,-0.6,31.00,West,263,0.0,11.0,25,0.00,,,0.00,Weather View 32 v70,2013-01-20 04:48:00,
2013-01-19 21:53:00,30.2,1.0,31.00,SW,218,0.0,11.0,28,0.00,,,0.00,Weather View 32 v70,2013-01-20 04:53:00,
2013-01-19 21:59:00,30.0,0.8,31.00,NW,324,0.0,11.0,28,0.00,,,0.00,Weather View 32 v70,2013-01-20 04:59:00,
2013-01-19 22:00:00,30.2,1.0,31.00,NW,315,0.0,11.0,28,0.00,,,0.00,Weather View 32 v70,2013-01-20 05:00:00,
2013-01-19 22:01:00,30.0,0.8,31.00,NW,315,0.0,11.0,28,0.00,,,0.00,Weather View 32 v70,2013-01-20 05:01:00,
2013-01-19 22:04:00,29.5,2.5,31.00,SSW,203,0.0,11.0,31,0.00,,,0.00,Weather View 32 v70,2013-01-20 05:04:00,
2013-01-19 22:09:00,28.6,1.1,31.00,West,262,0.0,11.0,30,0.00,,,0.00,Weather View 32 v70,2013-01-20 05:09:00,
2013-01-19 22:14:00,27.7,3.6,31.00,NNW,337,3.0,11.0,35,0.00,,,0.00,Weather View 32 v70,2013-01-20 05:14:00,
2013-01-19 22:19:00,27.3,2.6,31.00,NNW,334,0.0,11.0,34,0.00,,,0.00,Weather View 32 v70,2013-01-20 05:19:00,
2013-01-19 22:24:00,27.0,2.9,31.00,WNW,290,0.0,11.0,35,0.00,,,0.00,Weather View 32 v70,2013-01-20 05:24:00,
2013-01-19 22:29:00,26.4,4.2,31.00,NW,324,0.0,11.0,38,0.00,,,0.00,Weather View 32 v70,2013-01-20 05:29:00,
2013-01-19 22:34:00,25.9,4.9,31.00,West,263,0.0,10.0,40,0.00,,,0.00,Weather View 32 v70,2013-01-20 05:34:00,
2013-01-19 22:39:00,25.5,1.0,31.00,WNW,289,0.0,9.0,34,0.00,,,0.00,Weather View 32 v70,2013-01-20 05:39:00,
2013-01-19 22:44:00,25.0,1.2,31.00,West,265,0.0,9.0,35,0.00,,,0.00,Weather View 32 v70,2013-01-20 05:44:00,
2013-01-19 22:49:00,24.3,1.7,31.00,West,271,0.0,9.0,37,0.00,,,0.00,Weather View 32 v70,2013-01-20 05:49:00,
2013-01-19 22:54:00,24.3,3.9,31.00,NW,311,0.0,9.0,41,0.00,,,0.00,Weather View 32 v70,2013-01-20 05:54:00,
2013-01-19 22:59:00,23.9,2.0,31.00,WNW,301,0.0,9.0,38,0.00,,,0.00,Weather View 32 v70,2013-01-20 05:59:00,
2013-01-19 23:04:00,23.5,3.8,31.00,ESE,118,0.0,9.0,42,0.00,,,0.00,Weather View 32 v70,2013-01-20 06:04:00,
2013-01-19 23:09:00,24.1,1.6,31.00,WNW,300,0.0,9.0,37,0.00,,,0.00,Weather View 32 v70,2013-01-20 06:09:00,
2013-01-19 23:14:00,24.6,0.9,31.00,WSW,241,0.0,9.0,35,0.00,,,0.00,Weather View 32 v70,2013-01-20 06:14:00,
2013-01-19 23:19:00,30.2,1.0,31.00,WNW,292,0.0,8.0,28,0.00,,,0.00,Weather View 32 v70,2013-01-20 06:19:00,
2013-01-19 23:23:00,30.0,2.3,31.00,NNW,342,0.0,8.0,30,0.00,,,0.00,Weather View 32 v70,2013-01-20 06:23:00,
2013-01-19 23:28:00,29.5,2.5,31.00,WSW,251,0.0,8.0,31,0.00,,,0.00,Weather View 32 v70,2013-01-20 06:28:00,
2013-01-19 23:33:00,27.9,1.1,31.00,West,265,0.0,8.0,31,0.00,,,0.00,Weather View 32 v70,2013-01-20 06:33:00,
2013-01-19 23:38:00,27.0,0.3,31.00,West,266,0.0,8.0,31,0.00,,,0.00,Weather View 32 v70,2013-01-20 06:38:00,
2013-01-19 23:43:00,26.4,0.5,31.00,WSW,245,0.0,8.0,32,0.00,,,0.00,Weather View 32 v70,2013-01-20 06:43:00,
2013-01-19 23:48:00,26.1,0.2,31.00,WSW,251,0.0,8.0,32,0.00,,,0.00,Weather View 32 v70,2013-01-20 06:48:00,
2013-01-19 23:53:00,25.3,-0.4,31.00,West,277,0.0,8.0,32,0.00,,,0.00,Weather View 32 v70,2013-01-20 06:53:00,
2013-01-19 23:58:00,25.3,0.2,31.00,West,272,0.0,8.0,33,0.00,,,0.00,Weather View 32 v70,2013-01-20 06:58:00,